Location: Santa Cristina
(46.5667°N, 11.7167°E)
Time: 05:56:38
(UTC+00:00)

COSMOS 2406 - Pass Details

Date: 21 April 2021
Orbit: 845 x 862 km, 71.0° (Epoch: 15 May)

Event Time Altitude Azimuth Distance (km) Brightness Sun altitude
Rises 23:59:21 0° 336° (NNW) 3,420 7.1 -30.6°
Reaches altitude 10° 00:01:54 10° 341° (NNW) 2,479 6.3 -30.5°
Maximum altitude 00:07:26 50° 57° (ENE) 1,066 3.9 -30.3°
Enters shadow 00:08:12 47° 83° (E) 1,109 3.8 -30.2°
